Torna al catalogo

JITIANXING A-05 XING

AttivoScienzaSSO
NORAD 62733·PAYLOAD·🇨🇳 China
Questo nome del satellite non è ancora stato confermato da fonti ufficiali.

Lanciato Jan 20, 2025 da Jiuquan Satellite Launch Center

Loading…

Prossimi Passaggi (prossime 24 ore)

TLE

AggiornatoSource: Space-Track

Epoca: Sep 14, 2026, 22:22 UTC

1 62733U 25013E   26257.93203153  .00002843  00000-0  17136-3 0  9998
2 62733  97.6649  67.4332 0009894  73.2432 286.9883 15.11561759 90778

Traccia JITIANXING A-05 XING in tempo reale con AllMySat

Download on the App Store